[[{"header":{"parameterUnit":"m.s-1","parameterCategory":1,"la1":30.2991,"la2":30.254,"lo1":-89.0895,"lo2":-89.0444,"dy":0.0017,"dx":0.0017,"nx":28,"ny":28,"refTime":"2026-01-03T09:00:00:Z","depth":0,"parameterNumber":2,"parameterNumberName":"U-component_of_WINDS"},"data":[0,0,0,0,0,0,0,0,0,0,0,0,0,0,0,0,0,0,0,0,0,0,0,0,0,0,0,0,0,0,0,0,0,0,0,0,0,0,0,0,0,0,0,0,0,0,0,0,0,0,0,0,0,0,0,0,0,0,-3.1144,-3.1145,0,-3.1231,-3.1232,-3.1233,-3.1181,-3.1178,-3.1175,-3.1173,-3.1266,-3.1271,-3.1275,0,0,0,0,0,0,0,0,0,0,0,0,0,-3.0936,-3.094,-3.1144,-3.1145,-3.1147,-3.1231,-3.1232,-3.1233,-3.1181,-3.1178,-3.1175,-3.1172,-3.1264,-3.127,-3.1276,0,0,0,0,0,0,0,0,0,0,0,0,0,-3.1025,-3.0942,-3.1144,-3.113,-3.113,-3.1231,-3.1232,-3.1234,-3.1182,-3.1178,-3.1174,-3.1171,-3.1262,-3.1269,-3.1277,-3.1397,0,0,-3.1299,-3.1302,0,0,0,0,0,0,0,0,-3.102,-3.1033,-3.1131,-3.1132,-3.1131,-3.1191,-3.1193,-3.1289,-3.1183,-3.1162,-3.1173,-3.1169,-3.1244,-3.1253,-3.1278,-3.1401,-3.1405,-3.1299,-3.1304,-3.1307,-3.1309,0,0,0,0,0,0,0,-3.1014,-3.1029,-3.1179,-3.1133,-3.1133,-3.1121,-3.1129,-3.1211,-3.1224,-3.1164,-3.116,-3.1171,-3.1244,-3.1271,-3.1279,-3.1407,-3.1299,-3.1306,-3.131,-3.1313,-3.1633,-3.1637,0,0,0,0,0,0,-3.1009,-3.1024,-3.1176,-3.1181,-3.1065,-3.1128,-3.1137,-3.1176,-3.1222,-3.1226,-3.1174,-3.1168,-3.126,-3.1271,-3.1282,-3.1426,-3.1307,-3.1314,-3.1318,-3.1629,-3.1634,-3.1639,0,0,0,0,0,0,-3.1004,-3.1023,-3.1172,-3.1102,-3.112,-3.1135,-3.1179,-3.1179,-3.1206,-3.123,-3.1233,-3.1199,-3.1258,-3.1272,-3.1369,-3.1429,-3.1317,-3.1323,-3.1624,-3.1631,-3.1637,-3.1715,0,0,0,0,0,0,-3.0999,-3.1021,-3.1067,-3.1103,-3.1124,-3.1257,-3.1183,-3.1184,-3.1219,-3.1212,-3.1254,-3.1258,-3.1256,-3.1358,-3.1376,-3.1437,-3.1329,-3.1619,-3.1627,-3.1635,-3.1707,-3.1724,-3.1737,0,0,0,0,0,-3.0991,-3.1086,-3.1069,-3.1088,-3.1181,-3.126,-3.1272,-3.1267,-3.1224,-3.127,-3.1285,-3.1257,-3.1419,-3.1368,-3.1388,-3.1452,-3.1615,-3.1625,-3.1634,-3.1701,-3.172,-3.1737,0,0,0,0,0,0,-3.1058,-3.1091,-3.1072,-3.1182,-3.1218,-3.1251,-3.1309,-3.1288,-3.1338,-3.133,-3.1322,-3.1332,-3.1433,-3.1452,-3.1395,-3.1571,-3.1511,-3.1524,-3.1555,-3.1574,-3.1588,-3.1582,-3.1335,0,0,0,0,0,-3.1085,-3.1146,-3.1172,-3.1266,-3.1285,-3.1294,-3.1328,-3.1321,-3.1359,-3.1375,-3.1397,-3.1436,-3.1496,-3.1536,-3.1592,-3.171,-3.1719,-3.1763,-3.1778,-3.179,-3.1803,-3.1867,-3.1887,-3.167,-3.167,-3.1669,0,0,-3.1142,-3.1168,-3.1207,-3.128,-3.1307,-3.1371,-3.1307,-3.1378,-3.1426,-3.1386,-3.1478,-3.1495,-3.1539,-3.1646,-3.1695,-3.1665,-3.1865,-3.1802,-3.1812,-3.1818,-3.1879,-3.1899,-3.1917,-3.1676,-3.1675,-3.1674,0,0,-3.1279,-3.1304,-3.1385,-3.1414,-3.1456,-3.1461,-3.148,-3.1516,-3.1526,-3.1618,-3.1589,-3.1646,-3.175,-3.1782,-3.1812,-3.196,-3.1936,-3.1979,-3.2057,-3.2119,-3.2137,-3.2152,-3.2205,-3.2225,-3.1991,-3.1991,-3.1991,0,-3.1346,-3.144,-3.143,-3.1502,-3.1536,-3.1501,-3.1583,-3.1612,-3.1671,-3.1695,-3.1661,-3.1789,-3.1816,-3.193,-3.1966,-3.1992,-3.2014,-3.1974,-3.2135,-3.215,-3.2164,-3.2215,-3.2235,-3.1996,-3.1995,-3.1995,-3.1994,0,-3.1519,-3.1585,-3.1646,-3.1702,-3.1742,-3.1819,-3.1822,-3.1863,-3.1852,-3.1861,-3.1956,-3.1986,-3.2048,-3.2075,-3.2065,-3.2188,-3.2169,-3.2135,-3.2074,-3.219,-3.2237,-3.2257,-3.2003,-3.2001,-3.2,-3.1998,0,0,-3.1702,-3.175,-3.1773,-3.1798,-3.1841,-3.1893,-3.1968,-3.2027,-3.2064,-3.2105,-3.217,-3.2257,-3.2226,-3.226,-3.2253,-3.2308,-3.2424,-3.2267,-3.2268,-3.2296,-3.2563,-3.2588,-3.2611,-3.2408,-3.2412,-3.2415,-3.2559,0,-3.1842,-3.1973,-3.1966,-3.2089,-3.215,-3.2118,-3.2184,-3.2218,-3.2229,-3.2283,-3.2295,-3.2357,-3.2311,-3.2331,-3.2383,-3.2399,-3.2478,-3.2388,-3.2469,-3.2472,-3.246,-3.2636,-3.2664,-3.2799,-3.2578,-3.2581,-3.2583,0,-3.2023,-3.2069,-3.2198,-3.2232,-3.2257,-3.2317,-3.237,-3.2422,-3.246,-3.2464,-3.2502,-3.2486,-3.2564,-3.2501,-3.2608,-3.2548,-3.258,-3.2593,-3.2598,-3.2606,-3.2535,-3.265,-3.2841,-3.2862,-3.2612,-3.261,-3.2608,0,-3.2143,-3.2238,-3.2327,-3.235,-3.2391,-3.2434,-3.2454,-3.2488,-3.2524,-3.2571,-3.2595,-3.2651,-3.2682,-3.2727,-3.2727,-3.2681,-3.2837,-3.2773,-3.2843,-3.2843,-3.2878,-3.2876,-3.3078,-3.2898,-3.2897,-3.2897,-3.2897,0,-3.2301,-3.2382,-3.2382,-3.2437,-3.2527,-3.2518,-3.2607,-3.2623,-3.2654,-3.2712,-3.2687,-3.2743,-3.274,-3.2797,-3.2798,-3.2887,-3.2901,-3.2907,-3.2907,-3.291,-3.2909,-3.2932,-3.2923,-3.2902,-3.2901,-3.29,-3.2899,0,-3.2452,-3.2455,-3.255,-3.2581,-3.2591,-3.2656,-3.2683,-3.2736,-3.2743,-3.2818,-3.2835,-3.2847,-3.2913,-3.2917,-3.2993,-3.2994,-3.3103,-3.3092,-3.3089,-3.3088,-3.3158,-3.3151,-3.3382,-3.3413,-3.3212,-3.3213,-3.3215,0,-3.2552,-3.2613,-3.265,-3.2687,-3.2708,-3.2768,-3.2804,-3.2798,-3.2837,-3.2885,-3.2932,-3.2995,-3.3045,-3.3151,-3.3168,-3.3226,-3.3217,-3.3294,-3.3226,-3.3227,-3.3219,-3.3216,-3.3222,-3.3307,-3.331,-3.3311,-3.3313,0,-3.2731,-3.2729,-3.2781,-3.2835,-3.2878,-3.292,-3.2959,-3.2991,-3.299,-3.3035,-3.31,-3.3139,-3.3216,-3.3279,-3.3335,-3.3357,-3.3336,-3.3334,-3.3353,-3.3358,-3.3354,-3.3358,-3.3126,-3.3329,-3.3327,-3.3326,-3.3325,-3.3325,-3.286,-3.2912,-3.2947,-3.3006,-3.3034,-3.3071,-3.3122,-3.3135,-3.319,-3.3251,-3.3244,-3.3317,-3.3354,-3.3428,-3.3454,-3.3512,-3.3486,-3.3514,-3.3521,-3.3528,-3.3536,-3.3344,-3.3522,-3.3522,-3.3521,-3.3521,-3.352,0,-3.3038,-3.3058,-3.3112,-3.3167,-3.3213,-3.3187,-3.3229,-3.327,-3.3334,-3.337,-3.3419,-3.3495,-3.3555,-3.3577,-3.3636,-3.3679,-3.367,-3.3695,-3.3692,-3.3697,-3.3555,-3.3533,-3.37,-3.37,-3.37,-3.37,-3.37,-3.37,-3.3136,-3.3223,-3.3226,-3.3327,-3.3347,-3.3417,-3.3444,-3.3478,-3.3506,-3.3591,-3.3641,-3.3654,-3.3684,-3.3745,-3.38,-3.3805,-3.3829,-3.3857,-3.3858,-3.3725,-3.3707,-3.369,-3.3669,-3.3862,-3.3862,-3.3995,-3.3997,-3.3997]},{"header":{"parameterUnit":"m.s-1","parameterCategory":1,"la1":30.2991,"la2":30.254,"lo1":-89.0895,"lo2":-89.0444,"dy":0.0017,"dx":0.0017,"nx":28,"ny":28,"refTime":"2026-01-03T09:00:00:Z","depth":0,"parameterNumber":3,"parameterNumberName":"V-component_of_WINDS"},"data":[0,0,0,0,0,0,0,0,0,0,0,0,0,0,0,0,0,0,0,0,0,0,0,0,0,0,0,0,0,0,0,0,0,0,0,0,0,0,0,0,0,0,0,0,0,0,0,0,0,0,0,0,0,0,0,0,0,0,-1.2993,-1.2994,0,-1.307,-1.3071,-1.3071,-1.3086,-1.3086,-1.3085,-1.3085,-1.3164,-1.3166,-1.3169,0,0,0,0,0,0,0,0,0,0,0,0,0,-1.286,-1.2863,-1.2993,-1.2994,-1.2995,-1.307,-1.3071,-1.3072,-1.3086,-1.3086,-1.3085,-1.3084,-1.3163,-1.3166,-1.3169,0,0,0,0,0,0,0,0,0,0,0,0,0,-1.2925,-1.2863,-1.2993,-1.3012,-1.3014,-1.3069,-1.3071,-1.3072,-1.3087,-1.3086,-1.3085,-1.3084,-1.3162,-1.3166,-1.317,-1.3212,0,0,-1.3182,-1.3184,0,0,0,0,0,0,0,0,-1.2922,-1.293,-1.3008,-1.301,-1.3013,-1.3068,-1.3053,-1.3119,-1.3087,-1.3059,-1.3085,-1.3084,-1.3133,-1.3139,-1.3155,-1.3216,-1.3219,-1.3182,-1.3185,-1.3186,-1.3187,0,0,0,0,0,0,0,-1.2917,-1.2927,-1.3024,-1.3009,-1.3012,-1.3016,-1.3024,-1.3065,-1.31,-1.3061,-1.3063,-1.3071,-1.3134,-1.3151,-1.3157,-1.3221,-1.3182,-1.3186,-1.3188,-1.319,-1.3319,-1.332,0,0,0,0,0,0,-1.2909,-1.2923,-1.3021,-1.3026,-1.2964,-1.3019,-1.3028,-1.3051,-1.31,-1.3106,-1.3072,-1.3072,-1.3145,-1.3152,-1.316,-1.3213,-1.3186,-1.319,-1.3192,-1.3318,-1.3319,-1.332,0,0,0,0,0,0,-1.2906,-1.2918,-1.3018,-1.2975,-1.2988,-1.3022,-1.3048,-1.3053,-1.3071,-1.3108,-1.3114,-1.3084,-1.3145,-1.3154,-1.3199,-1.3216,-1.3192,-1.3196,-1.3317,-1.3318,-1.332,-1.3319,0,0,0,0,0,0,-1.2903,-1.2917,-1.2934,-1.2975,-1.299,-1.3056,-1.3049,-1.3055,-1.3077,-1.3078,-1.312,-1.3126,-1.3145,-1.3193,-1.3203,-1.3221,-1.3199,-1.3316,-1.3318,-1.3319,-1.3317,-1.332,-1.3322,0,0,0,0,0,-1.2898,-1.2931,-1.2934,-1.2946,-1.3012,-1.3057,-1.3065,-1.3085,-1.3079,-1.3096,-1.3119,-1.3125,-1.3212,-1.3197,-1.3209,-1.3228,-1.3315,-1.3317,-1.3319,-1.3316,-1.3319,-1.3322,0,0,0,0,0,0,-1.2891,-1.2937,-1.2941,-1.2989,-1.3019,-1.3059,-1.3081,-1.3088,-1.3121,-1.312,-1.3144,-1.3153,-1.3196,-1.3217,-1.3199,-1.3271,-1.3263,-1.3268,-1.3257,-1.326,-1.3262,-1.3257,-1.3202,0,0,0,0,0,-1.2895,-1.2927,-1.2965,-1.3004,-1.3018,-1.3047,-1.3067,-1.308,-1.3112,-1.3125,-1.3152,-1.3183,-1.3218,-1.324,-1.3273,-1.332,-1.3329,-1.3339,-1.3341,-1.3343,-1.3347,-1.3372,-1.3377,-1.3328,-1.3328,-1.3328,0,0,-1.2903,-1.2932,-1.2952,-1.3003,-1.3028,-1.3061,-1.3058,-1.3093,-1.3118,-1.3131,-1.3174,-1.3195,-1.3231,-1.3276,-1.3298,-1.3295,-1.3362,-1.3346,-1.3347,-1.335,-1.3375,-1.338,-1.3384,-1.333,-1.3329,-1.3329,0,0,-1.2936,-1.2961,-1.2995,-1.302,-1.3057,-1.3076,-1.3084,-1.3123,-1.3137,-1.3181,-1.3191,-1.322,-1.3279,-1.3304,-1.3325,-1.3365,-1.3371,-1.3375,-1.3388,-1.3412,-1.3416,-1.342,-1.3434,-1.3439,-1.3379,-1.3379,-1.3379,0,-1.2942,-1.2992,-1.3012,-1.3047,-1.3069,-1.3081,-1.3115,-1.3138,-1.3184,-1.3199,-1.3195,-1.3268,-1.3293,-1.3344,-1.3354,-1.337,-1.338,-1.3371,-1.3414,-1.3418,-1.3421,-1.3435,-1.344,-1.3379,-1.3379,-1.3379,-1.3379,0,-1.2998,-1.3032,-1.3055,-1.3099,-1.3123,-1.3158,-1.3182,-1.3205,-1.3215,-1.3233,-1.3277,-1.3308,-1.3348,-1.336,-1.3371,-1.3413,-1.3409,-1.3409,-1.3401,-1.3426,-1.3439,-1.3444,-1.3379,-1.3379,-1.3379,-1.3379,0,0,-1.303,-1.3083,-1.3091,-1.311,-1.3151,-1.3178,-1.3213,-1.3251,-1.3269,-1.33,-1.333,-1.3378,-1.3378,-1.3401,-1.3414,-1.3435,-1.3464,-1.3432,-1.3433,-1.3437,-1.3512,-1.3512,-1.3518,-1.3468,-1.3469,-1.347,-1.3509,0,-1.3067,-1.3129,-1.3147,-1.3199,-1.3231,-1.3242,-1.3271,-1.33,-1.3318,-1.3347,-1.3367,-1.3401,-1.3398,-1.3412,-1.3434,-1.3456,-1.348,-1.3454,-1.3496,-1.3497,-1.3487,-1.3525,-1.3525,-1.356,-1.3514,-1.3515,-1.3515,0,-1.312,-1.3151,-1.3206,-1.3242,-1.3256,-1.3282,-1.3318,-1.3346,-1.3378,-1.3389,-1.3414,-1.3425,-1.3461,-1.345,-1.35,-1.3482,-1.35,-1.3513,-1.3515,-1.352,-1.3508,-1.3531,-1.3572,-1.3577,-1.3524,-1.3523,-1.3523,0,-1.3138,-1.3193,-1.3233,-1.3249,-1.3292,-1.331,-1.3329,-1.336,-1.3381,-1.3412,-1.3426,-1.3461,-1.348,-1.3507,-1.3527,-1.3517,-1.3575,-1.3566,-1.3585,-1.3585,-1.3598,-1.3597,-1.3642,-1.3609,-1.3609,-1.3608,-1.3608,0,-1.3178,-1.3211,-1.3241,-1.3266,-1.3303,-1.3322,-1.3359,-1.3378,-1.3405,-1.3433,-1.3445,-1.3471,-1.3495,-1.3525,-1.3541,-1.3579,-1.3588,-1.3598,-1.3602,-1.3597,-1.3596,-1.361,-1.3608,-1.361,-1.361,-1.3609,-1.3609,0,-1.3204,-1.3226,-1.327,-1.3306,-1.3316,-1.3342,-1.3373,-1.3397,-1.3414,-1.345,-1.3459,-1.3488,-1.3523,-1.3545,-1.359,-1.36,-1.3642,-1.3645,-1.3631,-1.3633,-1.3652,-1.365,-1.3708,-1.3716,-1.3677,-1.3677,-1.3678,0,-1.3229,-1.3255,-1.3293,-1.3312,-1.3331,-1.3362,-1.3384,-1.3404,-1.3425,-1.3463,-1.3482,-1.3518,-1.3547,-1.3603,-1.3627,-1.3661,-1.3665,-1.3683,-1.3671,-1.3665,-1.3666,-1.3664,-1.3666,-1.3686,-1.3686,-1.3686,-1.3686,0,-1.327,-1.3279,-1.331,-1.3343,-1.3368,-1.3396,-1.3423,-1.3439,-1.3463,-1.3487,-1.3522,-1.3545,-1.359,-1.3625,-1.3661,-1.368,-1.3688,-1.369,-1.3696,-1.3692,-1.3683,-1.3688,-1.3637,-1.3689,-1.3689,-1.3688,-1.3688,-1.3688,-1.3297,-1.332,-1.335,-1.3383,-1.3405,-1.343,-1.3454,-1.3475,-1.3504,-1.3542,-1.3552,-1.3589,-1.3619,-1.3668,-1.3688,-1.3717,-1.3714,-1.3724,-1.3726,-1.3728,-1.3728,-1.3678,-1.3723,-1.3723,-1.3723,-1.3723,-1.3723,0,-1.3339,-1.3358,-1.3388,-1.3426,-1.3452,-1.3455,-1.3485,-1.3507,-1.3539,-1.3566,-1.3594,-1.3635,-1.3668,-1.3695,-1.3729,-1.3747,-1.3751,-1.3756,-1.3755,-1.3759,-1.3729,-1.372,-1.3752,-1.3752,-1.3752,-1.3752,-1.3752,-1.3752,-1.3364,-1.3402,-1.3414,-1.3464,-1.3483,-1.3519,-1.3536,-1.3559,-1.3581,-1.3625,-1.3652,-1.3669,-1.3696,-1.3732,-1.3763,-1.377,-1.3782,-1.3786,-1.3793,-1.3765,-1.3761,-1.3758,-1.375,-1.3788,-1.3788,-1.3822,-1.3822,-1.3822]}]]